Regional Weather Roundup
Issued by NWS

Home | Current Version | Previous Version | Text Only | Print | Product List | Glossary Off
Versions: 1 2 3 4 5 6 7 8 9 10 11 12 13 14 15 16 17 18 19 20 21 22 23 24 25 26 27 28 29 30 31 32 33 34 35 36 37 38 39 40 41 42 43 44 45 46 47 48 49 50

000
ASUS44 KMEG 041610
RWRTN
TENNESSEE HOURLY STATE WEATHER ROUNDUP
NATIONAL WEATHER SERVICE MEMPHIS TN
1100 AM CDT SAT JUL 04 2015

TNZ002-004-019-021-049-052-054-088>092-041700-
WEST TENNESSEE

CITY           SKY/WX    TMP DP  RH WIND       PRES   REMARKS
MEMPHIS INTL   CLOUDY    75  72  88 SW3       30.00F
NWS MEMPHIS      N/A     75 N/A N/A MISG        N/A
JACKSON        CLOUDY    76  70  82 VRB3      30.00F
DYERSBURG        N/A    N/A N/A N/A MISG        N/A
PARIS          PTSUNNY   75  68  78 CALM      30.01S
LEXINGTON      CLOUDY    73  70  88 SW5       30.01S
$$

TNZ008-025-027-028-033-062-065-066-041700-
NORTH MIDDLE TENNESSEE

CITY           SKY/WX    TMP DP  RH WIND       PRES   REMARKS
NASHVILLE      CLOUDY    78  72  81 S12       30.02R
CLARKSVILLE    LGT RAIN  78  71  79 N3        30.00S
SMYRNA         CLOUDY    75  71  87 SW9       30.03S
COOKEVILLE     CLOUDY    75  72  88 SW7       30.04S
CROSSVILLE     CLOUDY    70  67  90 SW5       30.09R FOG
$$

TNZ061-075-076-078-094-096-097-041700-
SOUTH MIDDLE TENNESSEE

CITY           SKY/WX    TMP DP  RH WIND       PRES   REMARKS
FAYETTEVILLE   CLOUDY    70  68  94 SW6       30.05F
TULLAHOMA      CLOUDY    70  68  94 S7        30.07S
WINCHESTER     CLOUDY    70  68  94 VRB3      30.07S
MCMINNVILLE    CLOUDY    72  72 100 SW6       30.06S
COLUMBIA       CLOUDY    75  72  88 W6        30.01S
SHELBYVILLE    CLOUDY    75  72  88 S6          N/A
$$

TNZ017-018-042-046-047-041700-
NORTHEAST TENNESSEE

CITY           SKY/WX    TMP DP  RH WIND       PRES   REMARKS
TRI CITIES     LGT RAIN  72  68  87 SW12      30.06R
ELIZABETHTON   LGT RAIN  66  66 100 VRB3      30.07R FOG
$$

TNZ012-013-036-069-073-074-041700-
CENTRAL EAST TENNESSEE

CITY           SKY/WX    TMP DP  RH WIND       PRES   REMARKS
KNOXVILLE      LGT RAIN  71  68  90 SW13      30.05R FOG
OAK RIDGE      CLOUDY    73  68  84 VRB6      30.06R
GATLINBURG     CLOUDY    73  64  73 SW10      30.05R
MORRISTOWN     MOSUNNY   72  66  83 W9        30.07R
$$

TNZ083-085-099-041700-
SOUTHEAST TENNESSEE

CITY           SKY/WX    TMP DP  RH WIND       PRES   REMARKS
CHATTANOOGA    CLOUDY    75  70  84 S7        30.06S
$$

SKY/WX REPORTED AS FAIR MEANS FEW OR NO CLOUDS BELOW
12 THOUSAND FEET.



USA.gov is the U.S. government's official web portal to all federal, state and local government web resources and services.